| time (UTC) | temp F | wind direction | speed MPH | gust MPH | rain 1hr in | rain 24hr in | rain mn in | humidity % | barometer mb |
| 20260504081516 | 55 | 204 | 0.0 | 1.0 | 0.00 | 0.00 | 0.00 | 77 | 1008.1 |
| 20260504044538 | 65 | 205 | 3.0 | 8.0 | 0.00 | 0.00 | 0.00 | 58 | 1008.2 |
| 20260504043046 | 65 | 215 | 3.0 | 6.0 | 0.00 | 0.00 | 0.00 | 57 | 1008.5 |
| 20260504041538 | 66 | 225 | 1.0 | 5.0 | 0.00 | 0.00 | 0.00 | 56 | 1008.9 |
| 20260504040035 | 66 | 236 | 1.0 | 4.0 | 0.00 | 0.00 | 0.00 | 55 | 1009.1 |
| 20260504034535 | 68 | 221 | 3.0 | 9.0 | 0.00 | 0.00 | 0.00 | 53 | 1009.1 |
| 20260504033037 | 68 | 219 | 4.0 | 11.0 | 0.00 | 0.00 | 0.00 | 55 | 1008.9 |
| 20260504031535 | 67 | 195 | 2.0 | 5.0 | 0.00 | 0.00 | 0.00 | 57 | 1009.6 |
| 20260504030033 | 66 | 231 | 1.0 | 4.0 | 0.00 | 0.00 | 0.00 | 58 | 1009.7 |
| 20260504024535 | 66 | 140 | 1.0 | 3.0 | 0.00 | 0.00 | 0.00 | 57 | 1009.4 |
| 20260504023031 | 67 | 189 | 1.0 | 4.0 | 0.00 | 0.00 | 0.00 | 55 | 1009.4 |
| 20260504021533 | 68 | 205 | 1.0 | 4.0 | 0.00 | 0.00 | 0.00 | 54 | 1009.3 |
| 20260504020032 | 67 | 226 | 2.0 | 3.0 | 0.00 | 0.00 | 0.00 | 54 | 1009.2 |
| 20260504014537 | 69 | 335 | 0.0 | 2.0 | 0.00 | 0.00 | 0.00 | 51 | 1009.3 |
| 20260504013029 | 69 | 162 | 0.0 | 3.0 | 0.00 | 0.00 | 0.00 | 51 | 1009.0 |
| 20260504011529 | 70 | 186 | 1.0 | 2.0 | 0.00 | 0.00 | 0.00 | 49 | 1008.9 |
| 20260504010029 | 71 | 204 | 0.0 | 2.0 | 0.00 | 0.00 | 0.00 | 46 | 1008.7 |
| 20260504004528 | 73 | 209 | 1.0 | 4.0 | 0.00 | 0.00 | 0.00 | 43 | 1008.7 |
| 20260504003034 | 74 | 236 | 0.0 | 3.0 | 0.00 | 0.00 | 0.00 | 43 | 1008.7 |
| 20260504001531 | 75 | 243 | 0.0 | 4.0 | 0.00 | 0.00 | 0.00 | 40 | 1008.8 |
| 20260504000025 | 75 | 257 | 3.0 | 9.0 | 0.00 | 0.00 | 0.00 | 38 | 1008.7 |
| 20260503234525 | 77 | 282 | 1.0 | 9.0 | 0.00 | 0.00 | 0.00 | 37 | 1008.8 |
| 20260503233023 | 78 | 8 | 3.0 | 11.0 | 0.00 | 0.00 | 0.00 | 36 | 1009.0 |
| 20260503231524 | 78 | 240 | 3.0 | 9.0 | 0.00 | 0.00 | 0.00 | 36 | 1009.0 |
| 20260503230020 | 79 | 243 | 3.0 | 5.0 | 0.00 | 0.00 | 0.00 | 36 | 1009.1 |
| 20260503224518 | 78 | 233 | 4.0 | 11.0 | 0.00 | 0.00 | 0.00 | 34 | 1009.3 |
| 20260503223019 | 78 | 207 | 4.0 | 10.0 | 0.00 | 0.00 | 0.00 | 36 | 1009.3 |
| 20260503221515 | 78 | 277 | 3.0 | 13.0 | 0.00 | 0.00 | 0.00 | 37 | 1009.6 |
| 20260503220013 | 78 | 195 | 4.0 | 15.0 | 0.00 | 0.00 | 0.00 | 36 | 1009.7 |
| 20260503214515 | 77 | 256 | 4.0 | 12.0 | 0.00 | 0.00 | 0.00 | 35 | 1010.1 |
| 20260503213009 | 77 | 224 | 7.0 | 15.0 | 0.00 | 0.00 | 0.00 | 34 | 1010.1 |
| 20260503211506 | 77 | 304 | 6.0 | 15.0 | 0.00 | 0.00 | 0.00 | 36 | 1010.2 |
| 20260503210005 | 76 | 269 | 7.0 | 22.0 | 0.00 | 0.00 | 0.00 | 34 | 1010.4 |
| 20260503204507 | 76 | 193 | 7.0 | 18.0 | 0.00 | 0.00 | 0.00 | 32 | 1010.5 |
| 20260503203003 | 76 | 202 | 5.0 | 25.0 | 0.00 | 0.00 | 0.00 | 36 | 1010.5 |
| 20260503201558 | 75 | 295 | 5.0 | 19.0 | 0.00 | 0.00 | 0.00 | 34 | 1010.8 |
| 20260503200101 | 74 | 221 | 7.0 | 21.0 | 0.00 | 0.00 | 0.00 | 37 | 1011.1 |
| 20260503194556 | 74 | 174 | 10.0 | 16.0 | 0.00 | 0.00 | 0.00 | 36 | 1011.6 |
| 20260503193051 | 73 | 153 | 9.0 | 16.0 | 0.00 | 0.00 | 0.00 | 38 | 1011.9 |
| 20260503191546 | 72 | 207 | 7.0 | 16.0 | 0.00 | 0.00 | 0.00 | 38 | 1012.3 |
| 20260503190045 | 71 | 155 | 9.0 | 18.0 | 0.00 | 0.00 | 0.00 | 38 | 1012.6 |
| 20260503184542 | 71 | 203 | 11.0 | 16.0 | 0.00 | 0.00 | 0.00 | 37 | 1013.1 |
| 20260503183036 | 70 | 194 | 11.0 | 18.0 | 0.00 | 0.00 | 0.00 | 37 | 1013.3 |
| 20260503181533 | 70 | 130 | 7.0 | 17.0 | 0.00 | 0.00 | 0.00 | 38 | 1013.9 |
| 20260503180043 | 69 | 218 | 8.0 | 16.0 | 0.00 | 0.00 | 0.00 | 38 | 1014.2 |
| 20260503174531 | 68 | 228 | 7.0 | 15.0 | 0.00 | 0.00 | 0.00 | 39 | 1014.7 |
| 20260503173025 | 68 | 213 | 8.0 | 14.0 | 0.00 | 0.00 | 0.00 | 39 | 1015.4 |
| 20260503171525 | 67 | 186 | 5.0 | 17.0 | 0.00 | 0.00 | 0.00 | 41 | 1015.6 |